Location: Casilda
(33.0440°S, 61.1680°W)
Time: 19:03:42
(UTC-03:00)

ISS - Pass Details

Date: 24 November 2022
Orbit: 414 x 420 km, 51.6° (Epoch: 02 December)

Event Time Altitude Azimuth Distance (km) Brightness Sun altitude
Exits shadow 04:25:09 39° 319° (NW) 655 -3.3 -16.0°
Maximum altitude 04:26:19 86° 44° (NE) 432 -3.8 -15.8°
Drops below altitude 10° 04:29:45 10° 133° (SE) 1,528 0.5 -15.2°
Sets 04:31:53 0° 133° (SE) 2,400 2.0 -14.9°
